| time (UTC) | temp F | wind direction | speed knots | gust knots | rain 1hr in | rain 24hr in | rain mn in | humidity % | barometer mb |
| 20260903151553 | 54 | 65 | 0.0 | 0.9 | 0.06 | 0.66 | 0.28 | 96 | 1010.3 |
| 20260903150058 | 54 | 0 | 0.0 | 0.9 | 0.06 | 0.65 | 0.27 | 96 | 1010.1 |
| 20260903144553 | 54 | 65 | 0.9 | 1.7 | 0.05 | 0.64 | 0.25 | 96 | 1010.0 |
| 20260903143107 | 54 | 65 | 0.0 | 1.7 | 0.06 | 0.63 | 0.24 | 96 | 1010.0 |
| 20260903141552 | 54 | 0 | 0.0 | 0.0 | 0.06 | 0.61 | 0.22 | 96 | 1010.0 |
| 20260903140050 | 53 | 0 | 0.0 | 1.7 | 0.07 | 0.60 | 0.21 | 96 | 1009.8 |
| 20260903134601 | 54 | 0 | 0.0 | 1.7 | 0.08 | 0.58 | 0.20 | 96 | 1009.7 |
| 20260903133107 | 53 | 78 | 0.9 | 3.5 | 0.08 | 0.57 | 0.18 | 96 | 1009.6 |
| 20260903131551 | 54 | 98 | 0.9 | 5.2 | 0.07 | 0.55 | 0.16 | 95 | 1009.6 |
| 20260903130112 | 54 | 98 | 0.0 | 1.7 | 0.06 | 0.52 | 0.14 | 95 | 1009.6 |
| 20260903124605 | 54 | 85 | 0.0 | 1.7 | 0.05 | 0.51 | 0.12 | 95 | 1009.6 |
| 20260903123051 | 54 | 76 | 0.9 | 2.6 | 0.05 | 0.49 | 0.10 | 95 | 1009.6 |
| 20260903121549 | 54 | 0 | 0.0 | 0.9 | 0.04 | 0.48 | 0.09 | 95 | 1009.8 |
| 20260903120051 | 54 | 0 | 0.0 | 0.9 | 0.04 | 0.47 | 0.08 | 95 | 1009.6 |
| 20260903114554 | 54 | 0 | 0.0 | 1.7 | 0.03 | 0.46 | 0.07 | 95 | 1009.7 |
| 20260903113049 | 54 | 0 | 0.0 | 0.9 | 0.02 | 0.44 | 0.05 | 95 | 1009.7 |
| 20260903111548 | 54 | 0 | 0.0 | 1.7 | 0.02 | 0.44 | 0.05 | 95 | 1009.7 |
| 20260903110054 | 54 | 236 | 0.0 | 1.7 | 0.02 | 0.43 | 0.04 | 95 | 1009.6 |
| 20260903104552 | 54 | 0 | 0.0 | 1.7 | 0.02 | 0.43 | 0.04 | 95 | 1009.6 |
| 20260903103055 | 54 | 0 | 0.0 | 0.0 | 0.01 | 0.42 | 0.03 | 95 | 1009.6 |
| 20260903101554 | 54 | 0 | 0.0 | 4.3 | 0.01 | 0.42 | 0.03 | 95 | 1009.7 |
| 20260903100100 | 54 | 0 | 0.0 | 0.9 | 0.00 | 0.41 | 0.02 | 95 | 1009.7 |
| 20260903094606 | 54 | 69 | 0.0 | 1.7 | 0.01 | 0.41 | 0.02 | 95 | 1009.6 |
| 20260903093052 | 54 | 0 | 0.0 | 1.7 | 0.01 | 0.41 | 0.02 | 95 | 1009.6 |
| 20260903091600 | 54 | 323 | 0.0 | 1.7 | 0.01 | 0.41 | 0.02 | 94 | 1009.7 |
| 20260903090105 | 54 | 0 | 0.0 | 1.7 | 0.02 | 0.41 | 0.02 | 94 | 1009.6 |
| 20260903084552 | 54 | 0 | 0.0 | 2.6 | 0.01 | 0.40 | 0.01 | 94 | 1009.8 |
| 20260903083114 | 54 | 0 | 0.0 | 0.9 | 0.01 | 0.40 | 0.01 | 94 | 1009.9 |
| 20260903081620 | 54 | 0 | 0.0 | 1.7 | 0.01 | 0.40 | 0.01 | 94 | 1009.9 |
| 20260903080100 | 54 | 0 | 0.0 | 1.7 | 0.00 | 0.39 | 0.00 | 94 | 1009.9 |
| 20260903074602 | 54 | 0 | 0.0 | 4.3 | 0.00 | 0.39 | 0.00 | 93 | 1010.0 |
| 20260903073103 | 54 | 165 | 1.7 | 7.0 | 0.00 | 0.39 | 0.00 | 93 | 1010.0 |
| 20260903071617 | 54 | 0 | 0.0 | 3.5 | 0.00 | 0.39 | 0.00 | 94 | 1010.0 |
| 20260903070050 | 54 | 163 | 0.0 | 1.7 | 0.00 | 0.39 | 0.00 | 95 | 1009.8 |
| 20260903064559 | 53 | 0 | 0.0 | 0.0 | 0.00 | 0.39 | 0.39 | 95 | 1009.9 |
| 20260903063059 | 53 | 0 | 0.0 | 0.0 | 0.00 | 0.39 | 0.39 | 95 | 1009.8 |
| 20260903061555 | 53 | 0 | 0.0 | 1.7 | 0.00 | 0.39 | 0.39 | 95 | 1009.8 |
| 20260903060119 | 52 | 163 | 0.0 | 1.7 | 0.00 | 0.39 | 0.39 | 95 | 1010.0 |
| 20260903054558 | 52 | 0 | 0.0 | 1.7 | 0.00 | 0.39 | 0.39 | 95 | 1009.9 |
| 20260903053058 | 52 | 135 | 0.0 | 1.7 | 0.00 | 0.39 | 0.39 | 95 | 1009.9 |
| 20260903051607 | 52 | 0 | 0.9 | 2.6 | 0.00 | 0.39 | 0.39 | 94 | 1010.0 |
| 20260903050059 | 52 | 226 | 0.0 | 1.7 | 0.00 | 0.39 | 0.39 | 94 | 1010.0 |
| 20260903044553 | 52 | 0 | 0.0 | 2.6 | 0.00 | 0.39 | 0.39 | 94 | 1009.8 |
| 20260903043051 | 52 | 229 | 0.9 | 2.6 | 0.00 | 0.39 | 0.39 | 94 | 1009.7 |
| 20260903041556 | 52 | 229 | 0.0 | 1.7 | 0.00 | 0.39 | 0.39 | 94 | 1009.6 |
| 20260903040105 | 52 | 0 | 0.0 | 1.7 | 0.00 | 0.39 | 0.39 | 93 | 1009.6 |
| 20260903034551 | 53 | 0 | 0.0 | 1.7 | 0.00 | 0.39 | 0.39 | 93 | 1009.2 |
| 20260903033050 | 53 | 0 | 0.0 | 0.0 | 0.00 | 0.39 | 0.39 | 92 | 1009.1 |
| 20260903031547 | 54 | 229 | 0.9 | 3.5 | 0.00 | 0.39 | 0.39 | 92 | 1008.9 |
| 20260903030054 | 55 | 227 | 1.7 | 3.5 | 0.00 | 0.39 | 0.39 | 92 | 1008.9 |
| 20260903024551 | 55 | 199 | 0.9 | 2.6 | 0.00 | 0.39 | 0.39 | 90 | 1008.8 |
| 20260903023102 | 56 | 215 | 0.9 | 3.5 | 0.00 | 0.39 | 0.39 | 89 | 1008.7 |
| 20260903021602 | 58 | 184 | 0.9 | 3.5 | 0.00 | 0.39 | 0.39 | 85 | 1008.5 |
| 20260903020101 | 61 | 173 | 0.0 | 1.7 | 0.00 | 0.39 | 0.39 | 81 | 1008.5 |
| 20260903014605 | 63 | 198 | 0.9 | 5.2 | 0.00 | 0.39 | 0.39 | 76 | 1008.5 |
| 20260903013053 | 64 | 0 | 0.0 | 2.6 | 0.00 | 0.39 | 0.39 | 73 | 1008.4 |
| 20260903011549 | 63 | 254 | 0.9 | 4.3 | 0.00 | 0.39 | 0.39 | 72 | 1008.2 |
| 20260903010055 | 63 | 165 | 0.9 | 5.2 | 0.00 | 0.39 | 0.39 | 75 | 1008.1 |
| 20260903004554 | 64 | 175 | 1.7 | 5.2 | 0.00 | 0.39 | 0.39 | 74 | 1008.0 |
| 20260903003049 | 64 | 163 | 1.7 | 7.0 | 0.00 | 0.39 | 0.39 | 71 | 1007.9 |
| 20260903001554 | 64 | 159 | 1.7 | 6.1 | 0.00 | 0.39 | 0.39 | 74 | 1007.9 |
| 20260903000050 | 63 | 155 | 0.9 | 3.5 | 0.00 | 0.39 | 0.39 | 81 | 1007.9 |
| 20260902234623 | 62 | 0 | 0.9 | 3.5 | 0.01 | 0.39 | 0.39 | 83 | 1007.8 |
| 20260902233056 | 62 | 99 | 0.9 | 2.6 | 0.02 | 0.39 | 0.39 | 86 | 1007.6 |
| 20260902231608 | 60 | 134 | 0.9 | 5.2 | 0.03 | 0.39 | 0.39 | 89 | 1007.6 |
| 20260902230114 | 60 | 0 | 0.0 | 3.5 | 0.05 | 0.39 | 0.39 | 90 | 1007.5 |
| 20260902224556 | 60 | 76 | 0.0 | 2.6 | 0.05 | 0.39 | 0.38 | 93 | 1007.3 |
| 20260902223053 | 60 | 59 | 0.0 | 1.7 | 0.06 | 0.38 | 0.37 | 96 | 1007.2 |
| 20260902221550 | 59 | 0 | 0.0 | 3.5 | 0.07 | 0.37 | 0.36 | 95 | 1006.9 |
| 20260902214550 | 58 | 221 | 1.7 | 7.0 | 0.08 | 0.34 | 0.33 | 95 | 1006.5 |
| 20260902213048 | 58 | 236 | 0.9 | 3.5 | 0.07 | 0.32 | 0.31 | 96 | 1006.4 |
| 20260902211557 | 58 | 0 | 0.9 | 3.5 | 0.07 | 0.30 | 0.29 | 95 | 1006.4 |
| 20260902210056 | 57 | 202 | 2.6 | 7.8 | 0.07 | 0.28 | 0.27 | 95 | 1006.2 |
| 20260902204601 | 57 | 117 | 1.7 | 10.4 | 0.06 | 0.26 | 0.25 | 95 | 1006.4 |
| 20260902203100 | 57 | 138 | 2.6 | 7.0 | 0.07 | 0.25 | 0.24 | 95 | 1006.2 |
| 20260902201556 | 57 | 229 | 0.0 | 2.6 | 0.06 | 0.23 | 0.22 | 95 | 1006.1 |
| 20260902200051 | 57 | 0 | 0.0 | 3.5 | 0.05 | 0.21 | 0.20 | 95 | 1006.3 |
| 20260902194547 | 57 | 73 | 0.9 | 3.5 | 0.05 | 0.20 | 0.19 | 95 | 1006.2 |
| 20260902193053 | 56 | 349 | 0.9 | 4.3 | 0.05 | 0.18 | 0.17 | 94 | 1006.4 |
| 20260902191600 | 56 | 269 | 1.7 | 7.8 | 0.04 | 0.17 | 0.16 | 93 | 1006.5 |
| 20260902190105 | 57 | 200 | 2.6 | 7.8 | 0.04 | 0.16 | 0.15 | 93 | 1006.8 |
| 20260902184555 | 57 | 0 | 1.7 | 5.2 | 0.02 | 0.14 | 0.13 | 93 | 1007.0 |
| 20260902183052 | 57 | 136 | 0.9 | 5.2 | 0.02 | 0.13 | 0.12 | 93 | 1006.9 |
| 20260902181600 | 57 | 95 | 0.0 | 1.7 | 0.03 | 0.13 | 0.12 | 94 | 1007.0 |
| 20260902180103 | 57 | 110 | 0.9 | 2.6 | 0.04 | 0.12 | 0.11 | 93 | 1007.1 |
| 20260902174602 | 57 | 158 | 0.0 | 2.6 | 0.06 | 0.12 | 0.11 | 93 | 1007.4 |
| 20260902173049 | 57 | 130 | 0.0 | 6.1 | 0.06 | 0.11 | 0.10 | 93 | 1007.4 |
| 20260902171606 | 57 | 0 | 0.0 | 1.7 | 0.06 | 0.10 | 0.09 | 93 | 1007.5 |
| 20260902170054 | 57 | 195 | 0.0 | 3.5 | 0.04 | 0.08 | 0.07 | 92 | 1007.3 |
| 20260902164601 | 57 | 0 | 0.0 | 3.5 | 0.03 | 0.06 | 0.05 | 92 | 1007.4 |
| 20260902163057 | 57 | 0 | 0.0 | 1.7 | 0.02 | 0.05 | 0.04 | 92 | 1007.5 |
| 20260902161559 | 57 | 0 | 0.0 | 0.0 | 0.02 | 0.04 | 0.03 | 91 | 1007.6 |
| 20260902160059 | 57 | 0 | 0.0 | 0.9 | 0.02 | 0.04 | 0.03 | 93 | 1007.5 |
| 20260902154559 | 57 | 0 | 0.0 | 0.9 | 0.02 | 0.03 | 0.02 | 92 | 1007.5 |
| 20260902153117 | 56 | 0 | 0.0 | 0.9 | 0.02 | 0.03 | 0.02 | 93 | 1007.8 |